TimeMST,TemperatureF,Dew PointF,Humidity,Sea Level PressureIn,VisibilityMPH,Wind Direction,Wind SpeedMPH,Gust SpeedMPH,PrecipitationIn,Events,Conditions,WindDirDegrees,DateUTC
12:53 AM,27.0,14.0,58,30.14,10.0,Calm,Calm,-,N/A,,Clear,0,2012-11-07 07:53:00
1:53 AM,26.1,14.0,60,30.14,10.0,NE,5.8,-,N/A,,Clear,50,2012-11-07 08:53:00
2:53 AM,23.0,12.9,65,30.15,10.0,NE,5.8,-,N/A,,Clear,50,2012-11-07 09:53:00
3:53 AM,23.0,12.9,65,30.13,10.0,NE,3.5,-,N/A,,Clear,40,2012-11-07 10:53:00
4:53 AM,25.0,12.0,58,30.15,10.0,ENE,5.8,-,N/A,,Clear,60,2012-11-07 11:53:00
5:53 AM,23.0,10.9,60,30.22,10.0,NNE,3.5,-,N/A,,Clear,20,2012-11-07 12:53:00
6:53 AM,23.0,10.0,58,30.25,10.0,Calm,Calm,-,N/A,,Clear,0,2012-11-07 13:53:00
7:53 AM,28.9,10.0,45,30.22,10.0,NNE,3.5,-,N/A,,Clear,20,2012-11-07 14:53:00
8:53 AM,39.9,12.0,32,30.14,10.0,Calm,Calm,-,N/A,,Clear,0,2012-11-07 15:53:00
9:53 AM,46.9,12.9,25,30.05,10.0,Calm,Calm,-,N/A,,Clear,0,2012-11-07 16:53:00
10:53 AM,53.1,5.0,14,30.01,10.0,NNW,12.7,-,N/A,,Clear,330,2012-11-07 17:53:00
11:53 AM,54.0,7.0,15,29.95,10.0,North,13.8,19.6,N/A,,Clear,350,2012-11-07 18:53:00
12:53 PM,55.0,9.0,16,29.93,10.0,NW,13.8,19.6,N/A,,Clear,320,2012-11-07 19:53:00
1:53 PM,54.0,9.0,17,29.92,10.0,WNW,12.7,21.9,N/A,,Clear,300,2012-11-07 20:53:00
2:53 PM,53.1,7.0,16,29.94,10.0,NW,12.7,21.9,N/A,,Clear,310,2012-11-07 21:53:00
3:53 PM,51.1,8.1,18,29.96,10.0,NW,11.5,-,N/A,,Clear,320,2012-11-07 22:53:00
4:53 PM,45.0,10.9,25,30.00,10.0,NNW,6.9,-,N/A,,Clear,330,2012-11-07 23:53:00
5:53 PM,41.0,12.9,32,30.05,10.0,North,5.8,-,N/A,,Clear,10,2012-11-08 00:53:00
6:53 PM,36.0,12.0,37,30.08,10.0,NE,9.2,-,N/A,,Clear,40,2012-11-08 01:53:00
7:53 PM,35.1,12.9,40,30.04,10.0,ENE,10.4,-,N/A,,Clear,60,2012-11-08 02:53:00
8:53 PM,32.0,12.9,45,29.99,10.0,NE,6.9,-,N/A,,Clear,50,2012-11-08 03:53:00
9:53 PM,30.9,12.0,46,29.94,10.0,Variable,3.5,-,N/A,,Clear,0,2012-11-08 04:53:00
10:53 PM,30.9,12.0,46,29.88,10.0,ENE,6.9,-,N/A,,Clear,60,2012-11-08 05:53:00
11:53 PM,32.0,12.0,44,29.86,10.0,NE,9.2,-,N/A,,Clear,40,2012-11-08 06:53:00